Ana Sayfa
METAR-TAF:

METAR-TAF

Havaalanları :

Lowell, Idaho, Amerika Birleşik Devletleri

Enlem: 46-08-39N, Boylam: 115-35-47W, yükseklik: 480 m

Güncel hava durumu gözlemi

Rapor saat 15:52 UTC de 18 dakika önce yapıldı.
Sakin rüzgar
Sıcaklık 6°C
Nem 93%
Basınç 1021 hPa

METAR: KP69 181552Z AUTO 00000KT 06/05 A3014 RMK AO1 SLP216 T00560050

Saat: 08:10 (16:10 UTC)


TAF: eksik

4.000'den fazla havaalanı için hava durumu gözlemleri ve tahminleri (METAR ve TAF raporları).

Kullanılabilir istasyonlar harita üzerinde sarı ve kırmızı noktalarla gösterilir.

İstasyonun adını görmek için fareyi noktanın üzerinde gezdirin.

Sonrasında hava gözlem ve tahminlerini görmek için tıklayın.

Haritayı değiştirmek için: yaklaştırmak için siyah artı işaretli yeşil düğmeye ve uzaklaştırmak için de eksi işaretli düğmeye hızla tıklayın; bitişik haritalar için yeşil okları kullanın.


METAR-TAF: